QPF
0.00 0.00 0.00 0.00 0.00 0.00 0.00 0.00 0.00 0.00 0.00 0.00 0.00 0.00 0.00 0.00 0.00 0.00 0.00 0.00 0.00 0.00 0.00 0.00 0.00 0.00 0.00 0.00 0.00 0.00 0.00 0.00 0.00 0.00 0.00 0.00 0.00 0.00 0.00 0.00 0.00 0.00 0.00 0.00
0.00 0.00 0.00 0.00 0.00 0.00 0.00 0.00 0.00 0.00 0.00 0.00 0.00 0.00 0.00 0.00 0.00 0.00 0.00 0.00 0.00 0.00 0.00 0.00 0.00 0.00 0.00 0.00 0.00 0.00 0.00 0.00 0.00 0.00 0.00 0.00 0.00 0.00 0.00 0.00 0.00 0.00 0.00 0.00
0.00 0.00 0.00 0.00 0.00 0.00 0.00 0.00 0.00 0.00 0.00 0.00 0.00 0.00 0.00 0.00 0.00 0.00 0.00 0.00 0.00 0.00 0.00 0.00 0.00 0.00 0.00 0.00 0.00 0.00 0.00 0.00 0.00 0.00 0.00 0.00 0.00 0.00 0.01 0.02 0.02 0.02 0.00 0.00
0.00 0.00 0.00 0.00 0.00 0.00 0.00 0.00 0.00 0.00 0.00 0.00 0.00 0.00 0.00 0.00 0.00 0.00 0.00 0.00 0.00 0.00 0.00 0.00 0.00 0.00 0.00 0.00 0.00 0.00 0.00 0.00 0.00 0.01 0.01 0.00 0.00 0.00 0.00 0.02 0.05 0.03 0.00 0.00
0.00 0.00 0.00 0.00 0.00 0.00 0.00 0.00 0.00 0.00 0.00 0.00 0.00 0.00 0.00 0.00 0.00 0.00 0.00 0.00 0.00 0.00 0.00 0.00 0.00 0.00 0.00 0.00 0.00 0.00 0.00 0.00 0.00 0.00 0.00 0.01 0.00 0.00 0.00 0.02 0.02 0.00 0.00 0.00
0.00 0.00 0.00 0.00 0.00 0.00 0.00 0.00 0.00 0.00 0.00 0.00 0.00 0.00 0.00 0.00 0.00 0.00 0.00 0.00 0.00 0.00 0.00 0.00 0.00 0.00 0.00 0.00 0.00 0.00 0.00 0.00 0.00 0.00 0.00 0.00 0.00 0.00 0.00 0.00 0.00 0.00 0.00 0.00
0.00 0.00 0.00 0.00 0.00 0.00 0.00 0.00 0.00 0.00 0.00 0.00 0.00 0.00 0.00 0.00 0.00 0.00 0.00 0.00 0.00 0.00 0.00 0.00 0.00 0.00 0.00 0.00 0.00 0.00 0.00 0.00 0.00 0.00 0.00 0.00 0.00 0.00 0.00 0.00 0.00 0.00 0.00 0.00
0.00 0.00 0.00 0.00 0.00 0.00 0.00 0.00 0.00 0.00 0.00 0.00 0.00 0.00 0.00 0.00 0.00 0.00 0.00 0.00 0.00 0.00 0.00 0.00 0.00 0.00 0.00 0.00 0.00 0.00 0.00 0.00 0.00 0.00 0.00 0.00 0.00 0.00 0.00 0.00 0.00 0.00 0.00 0.00
0.00 0.00 0.00 0.00 0.00 0.00 0.00 0.00 0.00 0.00 0.00 0.00 0.00 0.00 0.00 0.00 0.00 0.00 0.00 0.00 0.00 0.00 0.00 0.00 0.00 0.00 0.00 0.00 0.00 0.00 0.00 0.00 0.00 0.00 0.00 0.00 0.00 0.00 0.00 0.00 0.00 0.00 0.00 0.00
0.00 0.00 0.00 0.00 0.00 0.00 0.00 0.00 0.00 0.00 0.00 0.00 0.00 0.00 0.00 0.00 0.00 0.00 0.00 0.00 0.00 0.00 0.00 0.00 0.00 0.00 0.00 0.00 0.00 0.00 0.00 0.00 0.00 0.00 0.00 0.00 0.00 0.00 0.00 0.00 0.00 0.00 0.00 0.00
0.00 0.00 0.00 0.00 0.00 0.00 0.00 0.00 0.00 0.00 0.00 0.00 0.00 0.00 0.00 0.00 0.00 0.00 0.00 0.00 0.00 0.00 0.00 0.00 0.00 0.00 0.00 0.00 0.00 0.00 0.00 0.00 0.00 0.00 0.00 0.00 0.00 0.00 0.00 0.00 0.00 0.00 0.00 0.00
0.00 0.00 0.00 0.00 0.00 0.00 0.00 0.00 0.00 0.00 0.00 0.00 0.00 0.00 0.00 0.00 0.00 0.00 0.00 0.00 0.00 0.00 0.00 0.00 0.00 0.00 0.00 0.00 0.00 0.00 0.00 0.00 0.00 0.00 0.00 0.00 0.00 0.00 0.00 0.00 0.00 0.00 0.00 0.00
0.00 0.00 0.00 0.00 0.00 0.00 0.00 0.00 0.00 0.00 0.00 0.00 0.00 0.00 0.00 0.00 0.00 0.00 0.00 0.00 0.00 0.00 0.00 0.00 0.00 0.00 0.00 0.00 0.00 0.00 0.00 0.00 0.00 0.00 0.00 0.00 0.00 0.00 0.00 0.00 0.00 0.00 0.00 0.00
0.00 0.00 0.00 0.00 0.00 0.00 0.00 0.00 0.00 0.00 0.00 0.00 0.00 0.00 0.00 0.00 0.00 0.00 0.00 0.00 0.00 0.00 0.00 0.00 0.00 0.00 0.00 0.00 0.00 0.00 0.00 0.00 0.00 0.00 0.00 0.00 0.00 0.00 0.00 0.00 0.00 0.00 0.00 0.00
0.00 0.00 0.00 0.00 0.00 0.00 0.00 0.00 0.00 0.00 0.00 0.00 0.00 0.00 0.00 0.00 0.00 0.00 0.00 0.00 0.00 0.00 0.00 0.00 0.00 0.00 0.00 0.00 0.00 0.00 0.00 0.00 0.00 0.00 0.00 0.00 0.00 0.00 0.00 0.00 0.00 0.00 0.00 0.00
0.00 0.00 0.00 0.00 0.00 0.00 0.00 0.00 0.00 0.00 0.00 0.00 0.00 0.00 0.00 0.00 0.00 0.00 0.00 0.00 0.00 0.00 0.00 0.00 0.00 0.00 0.00 0.00 0.00 0.00 0.00 0.00 0.00 0.00 0.00 0.00 0.00 0.00 0.00 0.00 0.00 0.00 0.00 0.00
0.00 0.00 0.00 0.00 0.00 0.00 0.00 0.00 0.00 0.00 0.00 0.00 0.00 0.00 0.00 0.00 0.00 0.00 0.00 0.00 0.00 0.00 0.00 0.00 0.00 0.00 0.00 0.00 0.00 0.00 0.00 0.00 0.00 0.00 0.00 0.00 0.00 0.00 0.00 0.00 0.00 0.00 0.00 0.00
0.00 0.00 0.00 0.00 0.00 0.00 0.00 0.00 0.00 0.00 0.00 0.00 0.00 0.00 0.00 0.00 0.00 0.00 0.00 0.00 0.00 0.00 0.00 0.00 0.00 0.00 0.00 0.00 0.00 0.00 0.00 0.00 0.00 0.00 0.00 0.00 0.00 0.00 0.00 0.00 0.00 0.00 0.00 0.00
0.00 0.00 0.00 0.00 0.00 0.00 0.00 0.00 0.00 0.00 0.00 0.00 0.00 0.00 0.00 0.00 0.00 0.00 0.00 0.00 0.00 0.00 0.00 0.00 0.00 0.00 0.00 0.00 0.00 0.00 0.00 0.00 0.00 0.00 0.00 0.00 0.00 0.00 0.00 0.00 0.00 0.00 0.00 0.00
0.00 0.00 0.00 0.00 0.00 0.00 0.00 0.00 0.00 0.00 0.00 0.00 0.00 0.00 0.00 0.00 0.00 0.00 0.00 0.00 0.00 0.00 0.00 0.00 0.00 0.00 0.00 0.00 0.00 0.00 0.00 0.00 0.00 0.00 0.00 0.00 0.00 0.00 0.00 0.00 0.00 0.00 0.00 0.00
0.00 0.00 0.00 0.00 0.00 0.00 0.00 0.00 0.00 0.00 0.00 0.00 0.00 0.00 0.00 0.00 0.00 0.00 0.00 0.00 0.00 0.00 0.00 0.00 0.00 0.00 0.00 0.00 0.00 0.00 0.00 0.00 0.00 0.00 0.00 0.00 0.00 0.00 0.00 0.00 0.00 0.00 0.00 0.00
0.00 0.00 0.00 0.00 0.00 0.00 0.00 0.00 0.00 0.00 0.00 0.00 0.00 0.00 0.00 0.00 0.00 0.00 0.00 0.00 0.00 0.00 0.00 0.00 0.00 0.00 0.00 0.00 0.00 0.00 0.00 0.00 0.00 0.00 0.00 0.00 0.00 0.00 0.00 0.00 0.00 0.00 0.00 0.00
0.00 0.00 0.00 0.00 0.00 0.00 0.00 0.00 0.00 0.00 0.00 0.00 0.00 0.00 0.00 0.00 0.00 0.00 0.00 0.00 0.00 0.00 0.00 0.00 0.00 0.00 0.00 0.00 0.00 0.00 0.00 0.00 0.00 0.00 0.00 0.00 0.00 0.00 0.00 0.00 0.00 0.00 0.00 0.00
0.00 0.00 0.00 0.00 0.00 0.00 0.00 0.00 0.00 0.00 0.00 0.00 0.00 0.00 0.00 0.00 0.00 0.00 0.00 0.00 0.00 0.00 0.00 0.00 0.00 0.00 0.00 0.00 0.00 0.00 0.00 0.00 0.00 0.00 0.00 0.00 0.00 0.00 0.00 0.00 0.00 0.00 0.00 0.00
0.00 0.00 0.00 0.00 0.00 0.00 0.00 0.00 0.00 0.00 0.00 0.00 0.00 0.00 0.00 0.00 0.00 0.00 0.00 0.00 0.00 0.00 0.00 0.00 0.00 0.00 0.00 0.00 0.00 0.00 0.00 0.00 0.00 0.00 0.00 0.00 0.00 0.00 0.00 0.00 0.00 0.00 0.00 0.00
0.00 0.00 0.00 0.00 0.00 0.00 0.00 0.00 0.00 0.00 0.00 0.00 0.00 0.00 0.00 0.00 0.00 0.00 0.00 0.00 0.00 0.00 0.00 0.00 0.00 0.00 0.00 0.00 0.00 0.00 0.00 0.00 0.00 0.00 0.00 0.00 0.00 0.00 0.00 0.00 0.00 0.00 0.00 0.00
MSLP
1016.75 1017.29 1017.09 1016.87 1017.06 1017.23 1017.61 1017.97 1018.09 1017.39 1017.09 1017.30 1016.78 1016.23 1015.55 1015.47 1015.54 1015.69 1016.17 1016.79 1017.38 1017.93 1018.20 1018.36 1018.64 1018.98 1019.18 1019.28 1019.27 1019.05 1018.80 1018.37 1017.86 1017.40 1016.60 1015.70 1014.55 1014.07 1013.48 1012.99 1012.35 1011.66 1010.23 1010.05
1017.09 1016.84 1016.46 1016.56 1016.92 1017.31 1017.80 1018.28 1018.12 1017.73 1017.85 1018.11 1017.45 1016.27 1014.99 1014.90 1014.86 1015.17 1015.94 1017.00 1017.53 1017.92 1018.26 1018.61 1018.97 1019.24 1019.53 1019.52 1019.31 1018.94 1018.67 1018.33 1017.87 1017.02 1016.44 1015.82 1014.75 1014.02 1013.45 1012.66 1011.75 1010.81 1009.77 1009.42
1016.79 1016.41 1016.26 1016.65 1017.10 1017.63 1017.99 1018.51 1018.64 1019.12 1019.17 1019.00 1018.43 1016.75 1015.89 1015.41 1015.35 1015.69 1016.13 1016.72 1017.51 1018.14 1018.63 1019.03 1019.32 1019.46 1019.40 1019.26 1018.97 1018.65 1018.45 1018.04 1017.41 1016.72 1016.14 1015.59 1014.93 1014.01 1012.98 1011.92 1011.16 1010.33 1009.80 1009.69
1016.64 1016.31 1016.56 1016.95 1017.39 1017.94 1018.56 1018.69 1019.26 1019.87 1020.69 1021.15 1020.25 1019.37 1016.83 1016.15 1015.98 1015.97 1016.27 1016.95 1018.01 1018.85 1019.25 1019.49 1019.40 1019.28 1019.31 1019.01 1018.64 1018.51 1018.25 1017.79 1017.19 1016.71 1016.16 1015.73 1015.23 1014.09 1013.07 1012.13 1011.24 1010.55 1010.39 1010.34
1016.72 1016.74 1017.02 1017.32 1017.39 1017.89 1018.55 1019.07 1019.89 1020.58 1021.72 1022.34 1021.51 1021.84 1017.15 1016.87 1016.57 1016.26 1016.65 1017.67 1018.78 1019.49 1019.50 1019.41 1019.37 1019.27 1019.04 1018.76 1018.56 1018.32 1018.01 1017.47 1017.03 1016.64 1016.41 1015.83 1015.01 1014.22 1013.16 1012.14 1011.19 1010.19 1010.74 1010.78
1017.06 1017.10 1017.29 1017.55 1017.87 1018.29 1018.93 1019.74 1020.54 1021.41 1022.50 1023.13 1021.63 1021.69 1017.94 1017.41 1016.78 1016.69 1017.37 1018.48 1019.20 1019.27 1019.24 1019.13 1019.11 1019.02 1018.96 1018.81 1018.51 1018.18 1017.73 1017.23 1016.91 1016.59 1016.24 1015.73 1015.16 1014.37 1013.26 1012.15 1011.35 1010.96 1011.28 1011.11
1017.45 1017.53 1017.76 1018.15 1018.63 1018.91 1019.71 1020.78 1021.80 1022.87 1023.37 1022.58 1021.57 1021.59 1017.68 1016.68 1016.84 1017.66 1018.59 1019.05 1019.08 1019.05 1019.13 1019.23 1019.20 1019.12 1018.97 1018.78 1018.49 1018.13 1017.61 1017.07 1016.77 1016.44 1015.94 1015.45 1015.06 1014.47 1013.42 1012.60 1011.99 1011.90 1011.74 1012.18
1018.01 1018.22 1018.49 1018.81 1019.16 1019.45 1020.23 1021.03 1022.31 1023.36 1023.70 1023.16 1021.86 1020.35 1016.98 1016.69 1017.53 1018.32 1019.09 1019.28 1019.45 1019.47 1019.35 1019.38 1019.29 1019.21 1019.08 1018.78 1018.51 1018.16 1017.60 1017.07 1016.71 1016.31 1015.85 1015.45 1015.15 1014.58 1013.83 1013.16 1012.59 1012.51 1012.81 1013.03
1018.63 1018.68 1019.04 1019.39 1019.67 1020.19 1020.67 1021.27 1022.12 1023.23 1024.16 1024.19 1021.25 1018.58 1016.63 1017.31 1018.14 1018.98 1019.41 1019.69 1019.75 1019.58 1019.53 1019.38 1019.39 1019.44 1019.38 1019.17 1018.78 1018.28 1017.67 1017.20 1016.73 1016.23 1015.75 1015.35 1015.14 1014.77 1014.32 1013.81 1013.35 1013.34 1013.55 1013.55
1019.06 1019.29 1019.21 1019.89 1020.27 1020.65 1020.97 1021.62 1022.74 1023.88 1024.99 1024.28 1021.37 1019.79 1018.60 1018.47 1019.07 1019.60 1019.91 1020.11 1020.02 1019.70 1019.58 1019.83 1019.94 1019.81 1019.60 1019.32 1018.96 1018.36 1017.84 1017.27 1016.69 1016.24 1015.87 1015.51 1015.27 1015.03 1014.77 1014.29 1013.98 1013.91 1013.94 1013.79
1019.15 1019.90 1020.06 1020.48 1020.99 1020.98 1021.99 1022.21 1023.03 1023.75 1024.61 1024.90 1023.69 1019.33 1017.82 1018.69 1019.63 1020.05 1020.22 1020.28 1020.10 1020.17 1020.36 1020.59 1020.62 1020.38 1020.07 1019.59 1019.15 1018.61 1017.93 1017.37 1016.83 1016.33 1016.05 1015.83 1015.64 1015.39 1014.95 1014.44 1014.39 1014.38 1014.19 1013.87
1019.56 1019.81 1019.98 1020.30 1020.95 1021.44 1021.75 1022.36 1023.07 1024.17 1025.00 1024.89 1024.33 1020.35 1017.89 1018.65 1019.74 1020.13 1020.27 1020.47 1020.48 1020.62 1020.90 1021.11 1021.09 1020.79 1020.46 1020.07 1019.37 1018.87 1018.23 1017.66 1017.16 1016.68 1016.33 1016.14 1015.97 1015.73 1015.21 1014.97 1014.92 1014.84 1014.61 1014.58
1019.73 1019.81 1020.29 1020.64 1021.75 1022.02 1022.48 1022.82 1023.29 1023.84 1024.61 1024.69 1024.23 1020.04 1018.19 1019.29 1020.00 1020.27 1020.70 1021.19 1021.05 1021.09 1021.41 1021.61 1021.38 1021.10 1020.60 1020.05 1019.49 1019.02 1018.48 1017.97 1017.47 1017.03 1016.72 1016.47 1016.29 1015.98 1015.76 1015.68 1015.57 1015.19 1015.04 1015.24
1020.00 1020.15 1020.56 1020.92 1021.39 1022.21 1023.38 1023.29 1023.55 1023.89 1024.92 1024.05 1022.11 1019.77 1018.42 1019.38 1020.40 1020.99 1021.19 1021.63 1021.75 1022.08 1021.96 1021.98 1021.88 1021.41 1020.78 1020.20 1019.54 1019.18 1018.69 1018.24 1017.91 1017.52 1017.20 1016.94 1016.65 1016.43 1016.30 1016.17 1015.90 1015.77 1015.80 1015.61
1020.37 1020.53 1020.89 1020.84 1021.43 1022.55 1022.64 1023.03 1023.44 1023.58 1023.15 1023.21 1021.25 1020.72 1019.09 1019.41 1020.57 1021.08 1021.75 1022.02 1022.31 1022.60 1022.77 1022.40 1022.24 1021.72 1020.89 1020.32 1019.83 1019.34 1018.92 1018.60 1018.23 1017.95 1017.69 1017.53 1017.27 1017.05 1016.80 1016.59 1016.62 1016.57 1016.58 1016.79
1020.80 1020.83 1021.29 1021.13 1021.61 1022.37 1022.87 1022.43 1022.89 1023.22 1023.01 1022.21 1021.31 1020.31 1019.01 1019.31 1020.30 1021.23 1022.04 1022.50 1022.87 1022.85 1023.16 1022.60 1022.41 1021.64 1020.86 1020.37 1020.13 1019.68 1019.35 1019.06 1018.65 1018.37 1018.16 1017.97 1017.73 1017.59 1017.56 1017.58 1017.73 1017.84 1017.87 1017.91
1021.07 1021.37 1021.94 1021.52 1021.53 1022.16 1022.11 1020.52 1021.71 1021.89 1021.30 1020.96 1020.92 1019.27 1019.25 1019.85 1020.77 1020.72 1021.41 1021.92 1022.30 1022.65 1022.75 1022.45 1022.25 1021.60 1020.97 1020.43 1020.13 1020.01 1019.70 1019.37 1019.12 1018.91 1018.81 1018.66 1018.60 1018.57 1018.54 1018.58 1018.62 1018.74 1018.81 1018.81
1021.17 1021.62 1022.15 1021.95 1021.46 1021.13 1019.00 1019.16 1019.57 1019.89 1019.37 1019.22 1018.93 1018.75 1019.22 1019.31 1019.65 1019.69 1020.21 1020.83 1021.52 1021.99 1022.03 1022.15 1021.74 1021.48 1021.10 1020.66 1020.39 1020.23 1020.05 1019.83 1019.56 1019.45 1019.40 1019.33 1019.21 1019.14 1019.16 1019.13 1019.18 1019.22 1019.28 1019.36
1021.37 1021.59 1022.08 1022.40 1022.50 1019.49 1017.79 1018.79 1019.10 1019.11 1017.38 1016.92 1017.75 1018.16 1018.45 1019.08 1019.35 1018.88 1019.13 1019.69 1020.35 1020.75 1021.08 1021.21 1021.40 1021.32 1020.92 1020.69 1020.46 1020.33 1020.24 1020.08 1019.95 1019.90 1019.83 1019.73 1019.58 1019.43 1019.46 1019.57 1019.71 1019.82 1019.86 1019.95
1021.45 1021.66 1022.17 1022.23 1022.22 1019.62 1017.26 1016.66 1016.82 1017.59 1016.89 1016.40 1016.63 1017.18 1018.22 1018.75 1018.86 1018.22 1018.34 1018.97 1019.87 1019.98 1020.36 1020.70 1020.91 1020.89 1020.81 1020.61 1020.50 1020.45 1020.42 1020.46 1020.43 1020.47 1020.51 1020.51 1020.43 1020.35 1020.41 1020.47 1020.47 1020.46 1020.41 1020.50
1021.32 1021.41 1021.61 1022.03 1021.45 1018.14 1015.75 1015.85 1016.34 1016.65 1016.97 1015.55 1016.00 1016.57 1017.27 1017.62 1016.99 1016.78 1017.28 1018.46 1018.81 1019.37 1019.89 1020.23 1020.48 1020.70 1020.56 1020.44 1020.37 1020.54 1020.50 1020.63 1020.59 1020.69 1020.85 1021.01 1021.09 1021.14 1021.16 1021.17 1021.18 1021.25 1021.35 1021.47
1020.18 1020.46 1020.63 1020.72 1020.19 1017.43 1014.94 1015.70 1015.51 1014.84 1014.91 1015.13 1015.40 1015.38 1016.00 1015.92 1016.33 1016.51 1016.91 1017.77 1018.40 1018.75 1019.18 1019.42 1019.92 1020.07 1020.07 1020.19 1020.28 1020.34 1020.35 1020.25 1020.37 1020.59 1020.91 1021.20 1021.26 1021.30 1021.50 1021.58 1021.68 1021.75 1021.91 1022.03
1019.01 1018.49 1018.54 1018.21 1015.74 1013.61 1013.83 1013.46 1012.88 1013.25 1013.76 1013.74 1013.91 1013.87 1014.45 1015.26 1015.70 1015.83 1016.09 1016.75 1017.25 1017.77 1018.20 1018.62 1019.05 1019.41 1019.55 1019.73 1019.87 1020.08 1020.11 1020.43 1020.77 1021.02 1021.17 1021.35 1021.09 1021.15 1021.25 1021.52 1021.71 1021.84 1021.90 1021.87
1017.42 1017.23 1017.09 1016.22 1012.30 1012.20 1012.07 1011.74 1011.83 1012.13 1011.99 1012.21 1012.40 1012.53 1013.10 1013.40 1014.17 1015.07 1015.36 1015.65 1016.11 1016.72 1017.33 1017.95 1018.54 1018.79 1019.00 1019.13 1019.32 1019.49 1019.76 1020.06 1020.71 1021.02 1021.24 1021.46 1021.59 1021.57 1021.43 1021.37 1021.52 1021.80 1021.75 1021.73
1015.87 1016.27 1015.22 1014.09 1012.13 1011.45 1010.20 1010.29 1010.45 1010.63 1010.94 1011.33 1011.41 1011.60 1011.77 1012.43 1012.95 1013.42 1014.26 1014.74 1014.99 1015.46 1016.26 1016.78 1017.33 1017.77 1018.01 1018.41 1018.73 1019.06 1019.29 1019.80 1020.35 1020.54 1020.83 1021.05 1021.10 1021.10 1021.05 1021.01 1020.93 1020.87 1020.54 1020.45
1014.14 1013.47 1013.55 1011.87 1010.74 1010.83 1009.97 1009.43 1009.50 1009.97 1010.19 1010.19 1010.80 1011.01 1010.83 1011.30 1011.67 1012.41 1012.84 1013.39 1014.13 1014.73 1015.38 1016.00 1016.43 1017.00 1017.33 1017.76 1018.17 1018.61 1018.80 1019.26 1019.73 1020.21 1020.39 1020.39 1020.63 1020.81 1020.91 1020.91 1020.77 1020.22 1019.99 1019.99
Thickness
5555 5545 5542 5550 5545 5555 5548 5540 5524 5529 5543 5532 5521 5520 5527 5515 5507 5499 5483 5473 5460 5450 5438 5426 5413 5399 5388 5380 5375 5372 5371 5369 5370 5370 5375 5381 5391 5394 5404 5417 5433 5452 5477 5494
5543 5537 5553 5553 5551 5547 5538 5528 5515 5526 5525 5515 5509 5516 5522 5512 5505 5499 5477 5456 5446 5435 5419 5406 5394 5383 5372 5366 5361 5359 5355 5354 5353 5357 5358 5361 5368 5375 5385 5399 5417 5436 5458 5476
5536 5550 5547 5546 5542 5536 5526 5519 5518 5511 5496 5499 5490 5495 5487 5500 5487 5475 5465 5454 5438 5422 5406 5390 5379 5370 5360 5354 5350 5347 5342 5340 5341 5343 5345 5346 5350 5359 5373 5390 5405 5422 5440 5459
5533 5538 5536 5532 5526 5519 5506 5514 5505 5496 5463 5461 5466 5450 5479 5484 5476 5469 5458 5443 5426 5401 5388 5379 5370 5360 5350 5345 5341 5335 5330 5328 5329 5329 5330 5330 5331 5342 5357 5375 5390 5408 5421 5442
5534 5525 5521 5516 5522 5517 5502 5500 5489 5487 5441 5432 5449 5396 5460 5476 5470 5463 5449 5430 5407 5389 5380 5369 5358 5352 5344 5337 5330 5325 5321 5319 5318 5317 5316 5318 5319 5327 5344 5362 5383 5401 5409 5427
5514 5516 5515 5513 5512 5507 5500 5487 5486 5461 5448 5426 5430 5426 5469 5454 5450 5466 5446 5418 5396 5385 5377 5370 5359 5349 5338 5330 5323 5318 5314 5311 5308 5307 5308 5312 5314 5322 5336 5356 5374 5388 5399 5419
5509 5504 5500 5500 5497 5497 5473 5460 5427 5434 5446 5434 5444 5430 5477 5458 5448 5429 5412 5403 5386 5383 5375 5365 5353 5342 5334 5325 5318 5312 5307 5304 5302 5302 5304 5308 5313 5318 5332 5346 5363 5378 5390 5396
5504 5510 5485 5484 5480 5481 5476 5453 5434 5428 5410 5425 5451 5418 5478 5443 5420 5405 5396 5383 5390 5381 5371 5359 5350 5339 5329 5323 5315 5308 5302 5298 5296 5297 5300 5304 5308 5316 5326 5338 5353 5365 5374 5385
5479 5494 5473 5471 5470 5471 5473 5458 5452 5401 5368 5414 5421 5462 5487 5453 5427 5408 5392 5402 5387 5377 5366 5354 5348 5336 5325 5318 5311 5304 5300 5295 5293 5295 5298 5303 5307 5314 5322 5331 5343 5354 5366 5379
5467 5462 5476 5463 5464 5465 5464 5455 5434 5398 5381 5375 5428 5436 5458 5432 5426 5410 5399 5389 5379 5377 5367 5354 5342 5335 5326 5317 5311 5305 5299 5295 5293 5294 5297 5301 5305 5312 5319 5328 5337 5348 5362 5378
5461 5453 5465 5455 5436 5447 5435 5432 5434 5421 5402 5372 5392 5439 5438 5433 5408 5410 5399 5396 5374 5366 5356 5346 5337 5330 5322 5315 5309 5306 5302 5298 5297 5297 5298 5301 5306 5311 5319 5328 5335 5345 5362 5380
5453 5450 5468 5465 5429 5440 5448 5417 5418 5405 5400 5363 5378 5431 5413 5415 5398 5394 5402 5398 5376 5369 5353 5343 5335 5326 5320 5315 5310 5306 5307 5304 5302 5302 5303 5304 5308 5312 5320 5327 5336 5347 5361 5378
5447 5462 5461 5471 5446 5441 5422 5426 5417 5400 5386 5377 5382 5437 5410 5396 5404 5405 5394 5375 5375 5372 5353 5339 5334 5327 5320 5320 5318 5313 5311 5310 5310 5311 5311 5313 5315 5319 5325 5332 5340 5351 5365 5379
5444 5447 5452 5473 5466 5422 5416 5407 5421 5421 5359 5373 5418 5438 5466 5422 5405 5395 5388 5377 5363 5356 5346 5333 5330 5328 5329 5327 5327 5322 5318 5318 5317 5318 5320 5322 5325 5329 5334 5340 5348 5357 5366 5378
5434 5439 5424 5435 5435 5398 5408 5403 5420 5419 5398 5427 5415 5394 5456 5455 5418 5396 5378 5368 5366 5356 5347 5339 5330 5329 5334 5335 5332 5327 5326 5325 5325 5327 5327 5328 5332 5337 5342 5349 5354 5362 5369 5375
5424 5435 5418 5426 5396 5383 5400 5408 5417 5430 5385 5414 5436 5448 5433 5400 5383 5389 5383 5371 5368 5359 5349 5343 5337 5334 5339 5337 5336 5333 5331 5331 5332 5333 5334 5335 5339 5342 5345 5349 5353 5357 5363 5369
5422 5424 5417 5425 5411 5413 5440 5422 5414 5403 5391 5415 5414 5450 5407 5423 5403 5400 5394 5384 5377 5366 5356 5353 5349 5347 5346 5348 5346 5341 5338 5338 5339 5339 5338 5339 5341 5343 5345 5348 5352 5355 5359 5365
5420 5414 5412 5416 5423 5443 5475 5391 5415 5425 5413 5437 5434 5424 5425 5430 5418 5409 5399 5403 5390 5377 5369 5364 5361 5360 5354 5353 5350 5349 5347 5345 5344 5343 5342 5343 5344 5346 5349 5352 5355 5358 5360 5363
5408 5416 5418 5407 5370 5452 5486 5423 5427 5444 5484 5457 5468 5448 5420 5417 5424 5440 5416 5408 5407 5395 5388 5381 5371 5364 5365 5361 5358 5357 5353 5352 5350 5349 5350 5350 5352 5354 5356 5357 5358 5358 5361 5363
5405 5402 5406 5408 5395 5419 5470 5443 5436 5431 5476 5457 5456 5448 5434 5452 5459 5457 5428 5420 5409 5406 5397 5391 5385 5379 5375 5370 5369 5368 5363 5359 5357 5356 5354 5353 5353 5354 5355 5356 5357 5360 5362 5363
5399 5397 5398 5381 5380 5431 5456 5453 5460 5474 5482 5443 5443 5438 5452 5460 5471 5457 5439 5426 5420 5414 5407 5399 5392 5388 5384 5380 5377 5373 5369 5365 5364 5363 5361 5359 5359 5358 5359 5359 5360 5361 5361 5362
5408 5403 5395 5378 5376 5436 5449 5459 5482 5479 5453 5447 5442 5450 5460 5441 5436 5441 5443 5435 5428 5422 5415 5412 5404 5399 5395 5391 5388 5384 5380 5378 5375 5372 5369 5366 5364 5365 5363 5361 5361 5361 5361 5360
5419 5422 5422 5422 5445 5463 5451 5468 5465 5454 5470 5462 5463 5463 5468 5457 5450 5453 5452 5444 5441 5434 5428 5422 5415 5409 5404 5399 5396 5392 5389 5384 5379 5375 5371 5370 5371 5371 5370 5367 5366 5365 5364 5363
5418 5416 5421 5434 5472 5472 5480 5479 5470 5470 5477 5486 5484 5485 5478 5480 5470 5460 5457 5454 5449 5443 5435 5428 5419 5415 5411 5407 5405 5401 5395 5391 5384 5379 5377 5374 5373 5371 5370 5371 5369 5367 5364 5363
5433 5417 5428 5437 5464 5471 5485 5487 5488 5479 5475 5481 5485 5486 5485 5482 5475 5470 5464 5460 5457 5452 5443 5435 5429 5425 5421 5414 5410 5405 5400 5394 5389 5386 5383 5380 5378 5376 5375 5374 5373 5374 5375 5374
5431 5444 5444 5457 5472 5470 5486 5492 5492 5488 5490 5488 5483 5484 5485 5484 5485 5475 5472 5467 5460 5454 5447 5439 5435 5429 5424 5418 5414 5409 5405 5400 5394 5390 5387 5385 5382 5378 5375 5373 5373 5378 5378 5376